| time (UTC) | temp C | wind direction | speed KPH | gust KPH | rain 1hr cm | rain 24hr cm | rain mn cm | humidity % | barometer mb |
| 20260505111203 | 6 | 34 | 1.6 | 4.8 | 0.00 | 0.15 | 0.00 | 84 | 1013.4 |
| 20260505110703 | 6 | 33 | 4.8 | 14.5 | 0.00 | 0.15 | 0.00 | 84 | 1013.3 |
| 20260505110203 | 6 | 55 | 6.4 | 11.3 | 0.00 | 0.15 | 0.00 | 84 | 1013.3 |
| 20260505102203 | 6 | 52 | 6.4 | 12.9 | 0.00 | 0.15 | 0.00 | 84 | 1012.8 |
| 20260505101704 | 7 | 46 | 8.0 | 14.5 | 0.00 | 0.15 | 0.00 | 84 | 1012.7 |
| 20260505100704 | 7 | 6 | 4.8 | 9.7 | 0.00 | 0.15 | 0.00 | 84 | 1012.5 |
| 20260505100204 | 7 | 32 | 4.8 | 11.3 | 0.00 | 0.15 | 0.00 | 84 | 1012.5 |
| 20260505095703 | 7 | 23 | 3.2 | 8.0 | 0.00 | 0.15 | 0.00 | 84 | 1012.4 |
| 20260505095203 | 7 | 9 | 4.8 | 9.7 | 0.00 | 0.15 | 0.00 | 84 | 1012.3 |
| 20260505094203 | 7 | 27 | 4.8 | 12.9 | 0.00 | 0.15 | 0.00 | 84 | 1012.4 |
| 20260505093703 | 7 | 44 | 4.8 | 9.7 | 0.00 | 0.15 | 0.00 | 84 | 1012.5 |
| 20260505093203 | 7 | 61 | 4.8 | 11.3 | 0.00 | 0.15 | 0.00 | 84 | 1012.4 |
| 20260505092705 | 7 | 66 | 6.4 | 12.9 | 0.00 | 0.15 | 0.00 | 85 | 1012.5 |
| 20260505091203 | 8 | 33 | 3.2 | 4.8 | 0.00 | 0.15 | 0.00 | 85 | 1012.4 |
| 20260505090703 | 8 | 29 | 4.8 | 9.7 | 0.00 | 0.15 | 0.00 | 85 | 1012.3 |
| 20260505090204 | 8 | 36 | 4.8 | 8.0 | 0.00 | 0.15 | 0.00 | 85 | 1012.4 |
| 20260505085703 | 8 | 25 | 4.8 | 9.7 | 0.00 | 0.15 | 0.00 | 85 | 1012.4 |
| 20260505085204 | 8 | 22 | 4.8 | 8.0 | 0.00 | 0.15 | 0.00 | 85 | 1012.5 |
| 20260505084704 | 8 | 27 | 3.2 | 9.7 | 0.00 | 0.15 | 0.00 | 85 | 1012.6 |
| 20260505084203 | 8 | 73 | 3.2 | 4.8 | 0.00 | 0.15 | 0.00 | 85 | 1012.6 |
| 20260505083703 | 8 | 78 | 3.2 | 4.8 | 0.00 | 0.15 | 0.00 | 85 | 1012.5 |
| 20260505082703 | 8 | 122 | 1.6 | 4.8 | 0.00 | 0.15 | 0.00 | 86 | 1012.6 |
| 20260505082204 | 8 | 122 | 1.6 | 3.2 | 0.00 | 0.15 | 0.00 | 85 | 1012.7 |
| 20260505081703 | 8 | 122 | 0.0 | 3.2 | 0.00 | 0.15 | 0.00 | 86 | 1012.7 |
| 20260505081203 | 8 | 122 | 0.0 | 1.6 | 0.00 | 0.15 | 0.00 | 86 | 1012.6 |
| 20260505080204 | 8 | 122 | 1.6 | 3.2 | 0.00 | 0.15 | 0.00 | 86 | 1012.5 |
| 20260505075704 | 8 | 123 | 3.2 | 4.8 | 0.00 | 0.15 | 0.00 | 86 | 1012.5 |
| 20260505075203 | 8 | 131 | 0.0 | 1.6 | 0.00 | 0.15 | 0.00 | 86 | 1012.6 |
| 20260505074703 | 8 | 131 | 1.6 | 3.2 | 0.00 | 0.15 | 0.00 | 86 | 1012.6 |
| 20260505074204 | 8 | 131 | 1.6 | 4.8 | 0.00 | 0.15 | 0.00 | 86 | 1012.5 |
| 20260505073703 | 8 | 132 | 1.6 | 4.8 | 0.00 | 0.15 | 0.00 | 86 | 1012.9 |
| 20260505073205 | 8 | 132 | 1.6 | 3.2 | 0.00 | 0.15 | 0.00 | 86 | 1012.9 |
| 20260505072704 | 8 | 132 | 3.2 | 4.8 | 0.00 | 0.15 | 0.00 | 86 | 1012.9 |
| 20260505072203 | 8 | 132 | 3.2 | 4.8 | 0.00 | 0.15 | 0.00 | 86 | 1012.9 |
| 20260505071703 | 8 | 131 | 1.6 | 3.2 | 0.00 | 0.15 | 0.00 | 86 | 1013.0 |
| 20260505070703 | 8 | 131 | 1.6 | 4.8 | 0.00 | 0.15 | 0.00 | 86 | 1013.1 |
| 20260505070203 | 8 | 131 | 3.2 | 8.0 | 0.00 | 0.15 | 0.00 | 86 | 1013.0 |
| 20260505065704 | 8 | 134 | 4.8 | 8.0 | 0.00 | 0.15 | 0.00 | 86 | 1013.0 |
| 20260505065204 | 8 | 132 | 4.8 | 8.0 | 0.00 | 0.15 | 0.00 | 86 | 1013.1 |
| 20260505064705 | 8 | 139 | 3.2 | 9.7 | 0.00 | 0.15 | 0.00 | 86 | 1013.1 |
| 20260505064205 | 8 | 135 | 1.6 | 8.0 | 0.00 | 0.15 | 0.00 | 86 | 1013.1 |
| 20260505063203 | 8 | 154 | 1.6 | 4.8 | 0.03 | 0.15 | 0.00 | 86 | 1013.1 |
| 20260505062704 | 8 | 154 | 3.2 | 4.8 | 0.03 | 0.15 | 0.00 | 86 | 1013.1 |
| 20260505062203 | 8 | 154 | 1.6 | 4.8 | 0.03 | 0.15 | 0.00 | 86 | 1013.1 |
| 20260505061704 | 8 | 154 | 1.6 | 8.0 | 0.03 | 0.15 | 0.00 | 86 | 1013.1 |
| 20260505061203 | 8 | 172 | 4.8 | 8.0 | 0.03 | 0.15 | 0.00 | 86 | 1013.2 |
| 20260505060709 | 8 | 158 | 4.8 | 9.7 | 0.03 | 0.15 | 0.00 | 86 | 1013.2 |
| 20260505060203 | 8 | 153 | 4.8 | 8.0 | 0.03 | 0.15 | 0.00 | 86 | 1013.2 |
| 20260505055703 | 8 | 166 | 3.2 | 4.8 | 0.05 | 0.15 | 0.15 | 86 | 1013.2 |
| 20260505055203 | 8 | 167 | 3.2 | 4.8 | 0.05 | 0.15 | 0.15 | 86 | 1013.2 |
| 20260505054703 | 8 | 168 | 3.2 | 4.8 | 0.05 | 0.15 | 0.15 | 86 | 1013.1 |
| 20260505053703 | 8 | 199 | 1.6 | 4.8 | 0.05 | 0.15 | 0.15 | 85 | 1013.0 |
| 20260505053204 | 8 | 200 | 3.2 | 4.8 | 0.03 | 0.13 | 0.13 | 85 | 1013.1 |
| 20260505052704 | 8 | 212 | 3.2 | 4.8 | 0.03 | 0.13 | 0.13 | 85 | 1013.2 |
| 20260505051703 | 8 | 230 | 3.2 | 4.8 | 0.03 | 0.13 | 0.13 | 85 | 1013.3 |
| 20260505050703 | 8 | 235 | 3.2 | 4.8 | 0.05 | 0.13 | 0.13 | 85 | 1013.4 |
| 20260505050204 | 8 | 235 | 0.0 | 1.6 | 0.05 | 0.13 | 0.13 | 85 | 1013.4 |
| 20260505041703 | 8 | 327 | 3.2 | 14.5 | 0.08 | 0.08 | 0.08 | 83 | 1013.6 |
| 20260505041204 | 8 | 305 | 6.4 | 16.1 | 0.05 | 0.05 | 0.05 | 82 | 1013.6 |
| 20260505040704 | 8 | 302 | 4.8 | 19.3 | 0.05 | 0.05 | 0.05 | 81 | 1013.5 |
| 20260505040203 | 9 | 320 | 4.8 | 11.3 | 0.05 | 0.05 | 0.05 | 79 | 1013.4 |
| 20260505035703 | 10 | 269 | 3.2 | 19.3 | 0.03 | 0.03 | 0.03 | 76 | 1013.3 |
| 20260505034704 | 11 | 310 | 4.8 | 16.1 | 0.00 | 0.00 | 0.00 | 68 | 1013.1 |
| 20260505033704 | 11 | 314 | 3.2 | 12.9 | 0.00 | 0.00 | 0.00 | 65 | 1013.1 |
| 20260505032703 | 11 | 319 | 4.8 | 12.9 | 0.00 | 0.00 | 0.00 | 65 | 1012.8 |
| 20260505032204 | 11 | 332 | 1.6 | 4.8 | 0.00 | 0.00 | 0.00 | 64 | 1012.7 |
| 20260505031704 | 11 | 332 | 0.0 | 1.6 | 0.00 | 0.00 | 0.00 | 64 | 1012.5 |
| 20260505031203 | 11 | 332 | 0.0 | 4.8 | 0.00 | 0.00 | 0.00 | 64 | 1012.5 |
| 20260505030203 | 11 | 356 | 1.6 | 4.8 | 0.00 | 0.00 | 0.00 | 64 | 1012.3 |
| 20260505025704 | 11 | 356 | 3.2 | 9.7 | 0.00 | 0.00 | 0.00 | 64 | 1012.2 |
| 20260505025205 | 11 | 352 | 3.2 | 9.7 | 0.00 | 0.00 | 0.00 | 64 | 1012.1 |
| 20260505024703 | 11 | 26 | 1.6 | 4.8 | 0.00 | 0.00 | 0.00 | 64 | 1012.0 |
| 20260505024204 | 11 | 29 | 3.2 | 4.8 | 0.00 | 0.00 | 0.00 | 64 | 1011.9 |
| 20260505023704 | 11 | 29 | 3.2 | 4.8 | 0.00 | 0.00 | 0.00 | 64 | 1011.9 |
| 20260505023204 | 11 | 25 | 0.0 | 3.2 | 0.00 | 0.00 | 0.00 | 64 | 1012.0 |
| 20260505022703 | 11 | 25 | 3.2 | 8.0 | 0.00 | 0.00 | 0.00 | 63 | 1012.0 |
| 20260505022204 | 11 | 28 | 1.6 | 4.8 | 0.00 | 0.00 | 0.00 | 63 | 1012.0 |
| 20260505021704 | 11 | 34 | 3.2 | 9.7 | 0.00 | 0.00 | 0.00 | 63 | 1011.8 |
| 20260505021203 | 11 | 10 | 1.6 | 4.8 | 0.00 | 0.00 | 0.00 | 63 | 1011.9 |
| 20260505020703 | 11 | 10 | 1.6 | 11.3 | 0.00 | 0.00 | 0.00 | 62 | 1012.0 |
| 20260505020204 | 11 | 34 | 3.2 | 11.3 | 0.00 | 0.00 | 0.00 | 62 | 1012.0 |
| 20260505015705 | 12 | 20 | 6.4 | 11.3 | 0.00 | 0.00 | 0.00 | 60 | 1011.8 |
| 20260505015203 | 12 | 15 | 8.0 | 14.5 | 0.00 | 0.00 | 0.00 | 59 | 1011.7 |
| 20260505014704 | 12 | 19 | 6.4 | 12.9 | 0.00 | 0.00 | 0.00 | 58 | 1011.5 |
| 20260505014204 | 12 | 22 | 3.2 | 4.8 | 0.00 | 0.00 | 0.00 | 59 | 1011.3 |
| 20260505013703 | 12 | 23 | 1.6 | 4.8 | 0.00 | 0.00 | 0.00 | 60 | 1011.3 |
| 20260505013203 | 12 | 23 | 3.2 | 9.7 | 0.00 | 0.00 | 0.00 | 60 | 1011.3 |
| 20260505012703 | 11 | 6 | 4.8 | 9.7 | 0.00 | 0.00 | 0.00 | 62 | 1011.3 |
| 20260505012203 | 11 | 32 | 4.8 | 9.7 | 0.00 | 0.00 | 0.00 | 63 | 1011.4 |
| 20260505011704 | 11 | 6 | 4.8 | 11.3 | 0.00 | 0.00 | 0.00 | 63 | 1011.5 |
| 20260505010704 | 11 | 331 | 8.0 | 19.3 | 0.00 | 0.00 | 0.00 | 62 | 1011.4 |
| 20260505010203 | 12 | 315 | 12.9 | 25.7 | 0.00 | 0.00 | 0.00 | 59 | 1011.6 |
| 20260505004704 | 13 | 322 | 9.7 | 27.4 | 0.00 | 0.00 | 0.00 | 53 | 1011.4 |
| 20260505004204 | 13 | 333 | 9.7 | 19.3 | 0.00 | 0.00 | 0.00 | 53 | 1011.4 |
| 20260505003703 | 14 | 355 | 12.9 | 20.9 | 0.00 | 0.00 | 0.00 | 45 | 1011.3 |
| 20260505002703 | 14 | 315 | 16.1 | 33.8 | 0.00 | 0.00 | 0.00 | 45 | 1011.2 |
| 20260505001704 | 14 | 354 | 6.4 | 12.9 | 0.00 | 0.00 | 0.00 | 45 | 1011.0 |
| 20260505000704 | 15 | 336 | 9.7 | 19.3 | 0.00 | 0.00 | 0.00 | 43 | 1010.8 |
| 20260505000204 | 15 | 298 | 6.4 | 19.3 | 0.00 | 0.00 | 0.00 | 43 | 1010.7 |
| 20260504235704 | 15 | 257 | 4.8 | 16.1 | 0.00 | 0.00 | 0.00 | 40 | 1010.7 |
| 20260504235204 | 15 | 332 | 14.5 | 40.2 | 0.00 | 0.00 | 0.00 | 40 | 1010.7 |
| 20260504234703 | 16 | 317 | 16.1 | 32.2 | 0.00 | 0.00 | 0.00 | 39 | 1010.5 |
| 20260504234203 | 16 | 319 | 11.3 | 27.4 | 0.00 | 0.00 | 0.00 | 36 | 1010.5 |
| 20260504233705 | 16 | 356 | 12.9 | 24.1 | 0.00 | 0.00 | 0.00 | 32 | 1010.3 |
| 20260504233204 | 16 | 5 | 9.7 | 24.1 | 0.00 | 0.00 | 0.00 | 31 | 1010.2 |
| 20260504232704 | 16 | 10 | 14.5 | 29.0 | 0.00 | 0.00 | 0.00 | 31 | 1010.1 |
| 20260504232204 | 17 | 352 | 11.3 | 20.9 | 0.00 | 0.00 | 0.00 | 31 | 1010.1 |
| 20260504231704 | 17 | 346 | 14.5 | 27.4 | 0.00 | 0.00 | 0.00 | 31 | 1010.2 |
| 20260504231204 | 17 | 355 | 12.9 | 25.7 | 0.00 | 0.00 | 0.00 | 30 | 1010.0 |
| 20260504230704 | 17 | 348 | 11.3 | 27.4 | 0.00 | 0.00 | 0.00 | 30 | 1010.0 |
| 20260504230203 | 17 | 352 | 9.7 | 29.0 | 0.00 | 0.00 | 0.00 | 30 | 1009.9 |
| 20260504225704 | 17 | 320 | 12.9 | 29.0 | 0.00 | 0.00 | 0.00 | 30 | 1009.8 |
| 20260504225204 | 17 | 11 | 11.3 | 35.4 | 0.00 | 0.00 | 0.00 | 29 | 1009.8 |
| 20260504224704 | 17 | 307 | 19.3 | 33.8 | 0.00 | 0.00 | 0.00 | 29 | 1009.6 |
| 20260504224203 | 17 | 327 | 14.5 | 25.7 | 0.00 | 0.00 | 0.00 | 29 | 1009.8 |
| 20260504223703 | 17 | 330 | 9.7 | 20.9 | 0.00 | 0.00 | 0.00 | 29 | 1009.6 |
| 20260504223205 | 17 | 357 | 14.5 | 29.0 | 0.00 | 0.00 | 0.00 | 29 | 1009.8 |
| 20260504222704 | 17 | 334 | 16.1 | 32.2 | 0.00 | 0.00 | 0.00 | 29 | 1009.7 |
| 20260504221704 | 17 | 8 | 12.9 | 27.4 | 0.00 | 0.00 | 0.00 | 28 | 1009.7 |
| 20260504221203 | 17 | 2 | 17.7 | 33.8 | 0.00 | 0.00 | 0.00 | 28 | 1009.6 |
| 20260504220703 | 18 | 332 | 11.3 | 32.2 | 0.00 | 0.00 | 0.00 | 27 | 1009.4 |
| 20260504220204 | 18 | 0 | 14.5 | 29.0 | 0.00 | 0.00 | 0.00 | 25 | 1009.2 |
| 20260504215704 | 18 | 349 | 8.0 | 19.3 | 0.00 | 0.00 | 0.00 | 22 | 1009.0 |
| 20260504215205 | 19 | 354 | 9.7 | 19.3 | 0.00 | 0.00 | 0.00 | 22 | 1009.1 |
| 20260504214704 | 19 | 1 | 11.3 | 27.4 | 0.00 | 0.00 | 0.00 | 22 | 1009.1 |
| 20260504214204 | 20 | 317 | 11.3 | 24.1 | 0.00 | 0.00 | 0.00 | 21 | 1009.2 |
| 20260504213704 | 20 | 334 | 4.8 | 12.9 | 0.00 | 0.00 | 0.00 | 20 | 1009.2 |
| 20260504213204 | 20 | 9 | 8.0 | 20.9 | 0.00 | 0.00 | 0.00 | 20 | 1009.3 |
| 20260504212704 | 20 | 325 | 9.7 | 24.1 | 0.00 | 0.00 | 0.00 | 20 | 1009.4 |
| 20260504212204 | 20 | 318 | 8.0 | 19.3 | 0.00 | 0.00 | 0.00 | 21 | 1009.4 |
| 20260504211703 | 20 | 301 | 12.9 | 32.2 | 0.00 | 0.00 | 0.00 | 20 | 1009.5 |
| 20260504210705 | 21 | 326 | 14.5 | 32.2 | 0.00 | 0.00 | 0.00 | 20 | 1009.5 |
| 20260504210207 | 20 | 311 | 8.0 | 22.5 | 0.00 | 0.00 | 0.00 | 20 | 1009.6 |
| 20260504205204 | 20 | 305 | 9.7 | 24.1 | 0.00 | 0.00 | 0.00 | 21 | 1009.7 |
| 20260504204704 | 20 | 305 | 11.3 | 25.7 | 0.00 | 0.00 | 0.00 | 20 | 1009.7 |
| 20260504204205 | 20 | 339 | 8.0 | 22.5 | 0.00 | 0.00 | 0.00 | 20 | 1009.8 |
| 20260504203703 | 21 | 265 | 4.8 | 14.5 | 0.00 | 0.00 | 0.00 | 21 | 1009.8 |
| 20260504203203 | 21 | 319 | 8.0 | 20.9 | 0.00 | 0.00 | 0.00 | 22 | 1009.8 |
| 20260504202704 | 20 | 312 | 6.4 | 22.5 | 0.00 | 0.00 | 0.00 | 22 | 1009.8 |
| 20260504202203 | 20 | 313 | 14.5 | 29.0 | 0.00 | 0.00 | 0.00 | 22 | 1009.9 |
| 20260504201704 | 20 | 304 | 8.0 | 24.1 | 0.00 | 0.00 | 0.00 | 22 | 1009.8 |
| 20260504201204 | 20 | 255 | 6.4 | 16.1 | 0.00 | 0.00 | 0.00 | 21 | 1009.8 |
| 20260504200704 | 20 | 310 | 6.4 | 16.1 | 0.00 | 0.00 | 0.00 | 22 | 1009.9 |
| 20260504200204 | 20 | 316 | 6.4 | 16.1 | 0.00 | 0.00 | 0.00 | 21 | 1009.8 |
| 20260504195204 | 20 | 308 | 11.3 | 19.3 | 0.00 | 0.00 | 0.00 | 18 | 1009.9 |
| 20260504194204 | 21 | 299 | 8.0 | 22.5 | 0.00 | 0.00 | 0.00 | 18 | 1009.9 |
| 20260504193704 | 21 | 267 | 3.2 | 4.8 | 0.00 | 0.00 | 0.00 | 18 | 1009.9 |
| 20260504193204 | 21 | 348 | 4.8 | 12.9 | 0.00 | 0.00 | 0.00 | 18 | 1010.0 |
| 20260504192705 | 21 | 328 | 8.0 | 32.2 | 0.00 | 0.00 | 0.00 | 18 | 1010.0 |
| 20260504190704 | 21 | 170 | 16.1 | 29.0 | 0.00 | 0.00 | 0.00 | 18 | 1010.4 |
| 20260504190204 | 21 | 160 | 8.0 | 20.9 | 0.00 | 0.00 | 0.00 | 18 | 1010.4 |
| 20260504185704 | 21 | 249 | 4.8 | 14.5 | 0.00 | 0.00 | 0.00 | 18 | 1010.3 |
| 20260504185204 | 21 | 204 | 3.2 | 11.3 | 0.00 | 0.00 | 0.00 | 18 | 1010.1 |
| 20260504184704 | 21 | 14 | 4.8 | 9.7 | 0.00 | 0.00 | 0.00 | 18 | 1010.0 |
| 20260504183704 | 21 | 337 | 3.2 | 8.0 | 0.00 | 0.00 | 0.00 | 18 | 1009.9 |
| 20260504183204 | 21 | 312 | 3.2 | 14.5 | 0.00 | 0.00 | 0.00 | 18 | 1009.9 |
| 20260504182704 | 21 | 305 | 1.6 | 9.7 | 0.00 | 0.00 | 0.00 | 18 | 1010.0 |
| 20260504181704 | 21 | 324 | 9.7 | 16.1 | 0.00 | 0.00 | 0.00 | 18 | 1009.9 |
| 20260504181205 | 21 | 315 | 4.8 | 14.5 | 0.00 | 0.00 | 0.00 | 18 | 1010.0 |
| 20260504180704 | 21 | 291 | 8.0 | 19.3 | 0.00 | 0.00 | 0.00 | 18 | 1010.0 |
| 20260504180205 | 21 | 1 | 8.0 | 19.3 | 0.00 | 0.00 | 0.00 | 18 | 1010.0 |
| 20260504174704 | 22 | 314 | 8.0 | 19.3 | 0.00 | 0.00 | 0.00 | 19 | 1010.2 |
| 20260504174204 | 22 | 7 | 4.8 | 19.3 | 0.00 | 0.00 | 0.00 | 18 | 1010.2 |
| 20260504172704 | 22 | 318 | 11.3 | 22.5 | 0.00 | 0.00 | 0.00 | 18 | 1010.4 |
| 20260504172204 | 22 | 310 | 8.0 | 22.5 | 0.00 | 0.00 | 0.00 | 19 | 1010.4 |
| 20260504171204 | 21 | 239 | 8.0 | 19.3 | 0.00 | 0.00 | 0.00 | 18 | 1010.5 |
| 20260504170205 | 21 | 288 | 3.2 | 12.9 | 0.00 | 0.00 | 0.00 | 19 | 1010.6 |
| 20260504160204 | 20 | 293 | 6.4 | 16.1 | 0.00 | 0.00 | 0.00 | 20 | 1011.1 |
| 20260504150204 | 17 | 215 | 9.7 | 19.3 | 0.00 | 0.00 | 0.00 | 25 | 1011.6 |
| 20260504141204 | 13 | 200 | 6.4 | 9.7 | 0.00 | 0.00 | 0.00 | 33 | 1011.5 |
| 20260504140704 | 13 | 215 | 6.4 | 11.3 | 0.00 | 0.00 | 0.00 | 33 | 1011.5 |
| 20260504140204 | 13 | 216 | 8.0 | 16.1 | 0.00 | 0.00 | 0.00 | 33 | 1011.6 |
| 20260504130704 | 10 | 158 | 8.0 | 11.3 | 0.00 | 0.00 | 0.00 | 41 | 1011.2 |
| 20260504130205 | 10 | 179 | 8.0 | 19.3 | 0.00 | 0.00 | 0.00 | 42 | 1011.2 |
| 20260504120203 | 8 | 165 | 6.4 | 9.7 | 0.00 | 0.00 | 0.00 | 48 | 1011.1 |